Regional Weather Roundup
Issued by NWS Newport/Morehead, NC

Current Version | Previous Version | Graphics & Text | Print | Product List | Glossary Off
Versions: 1 2 3 4 5 6 7 8 9 10 11 12 13 14 15 16 17 18 19 20 21 22 23 24 25 26 27 28 29 30 31 32 33 34 35 36 37 38 39 40 41 42 43 44 45 46 47 48 49 50

000
ASUS42 KMHX 171622
RWRMHX
WEATHER ROUNDUP FOR EASTERN NORTH CAROLINA
NATIONAL WEATHER SERVICE NEWPORT/MOREHEAD CITY NC
1200 PM EDT THU APR 17 2014

NOTE: "FAIR" INDICATES FEW OR NO CLOUDS BELOW 12,000 FEET
WITH NO SIGNIFICANT WEATHER AND/OR OBSTRUCTIONS TO VISIBILITY

NCZ015>017-031-032-045>047-102-103-171700-
NORTH COAST

CITY           SKY/WX    TMP DP  RH WIND       PRES   REMARKS
EDENTON        MOSUNNY   56  42  60 NE9       30.55S
ELIZABETH CITY MOSUNNY   54  40  59 N18       30.56S
KITTY HAWK     PTSUNNY   51  41  67 N12G21    30.52S
MANTEO         CLOUDY    52  40  62 NE25G32   30.53S

$$

NCZ045>047-081-094-103-104-171700-
CENTRAL COAST

CITY           SKY/WX    TMP DP  RH WIND       PRES   REMARKS
FRISCO         CLOUDY    55  45  68 NE13G28   30.48S
SWANQUARTER    NOT AVBL

$$

NCZ095-097-098-100-101-171700-
SOUTHERN COAST

CITY           SKY/WX    TMP DP  RH WIND       PRES   REMARKS
BEAUFORT       MOSUNNY   60  46  59 NE15G29   30.48S
CEDAR ISLAND   NOT AVBL
JACKSONVILLE   MOSUNNY   59  43  55 NE7       30.49S
NEWPORT        NOT AVBL
PINEY ISLAND   PTSUNNY   58  46  64 N22G29    30.49S
WILMINGTON     PTSUNNY   62  42  47 N14       30.48S


$$

NCZ011>013-027>030-043-044-078>080-089-090>093-098-171700-
COASTAL PLAIN

CITY           SKY/WX    TMP DP  RH WIND       PRES   REMARKS
AHOSKIE        MOSUNNY   54  40  57 NE6       30.56F
CLINTON        MOSUNNY   57  42  57 NE8G16    30.51F
ELIZABETHTOWN  MOSUNNY   57  40  53 N6        30.49F
GOLDSBORO      MOSUNNY   56  41  56 NE10      30.51S
GREENVILLE     MOSUNNY   55  41  58 NE8G18    30.53F
HAVELOCK       PTSUNNY   61  44  53 NE18      30.50F
KENANSVILLE    MOSUNNY   55  40  56 NE3       30.53S
KINSTON        SUNNY     57  41  54 NE12      30.53S
NEW BERN       SUNNY     61  45  55 N13       30.51F
RICHLANDS      MOSUNNY   57  41  54 N10G16    30.50S
ROANOKE RAPIDS NOT AVBL
ROCKY MOUNT      N/A    N/A N/A N/A MISG      30.55F
WASHINGTON     MOSUNNY   58  44  60 NE10G20   30.53S
WHITEVILLE     MOSUNNY   56  41  55 NE9G16    30.48F

$$

AMZ130-135-150-152-154-156-158-170-250-252-270-ANZ085-086-088-633-658-670-171700-
MARINE OBSERVATIONS

STATION/POSITION TIME  TEMP    WIND        PRES    WAVE   SWELL
                       AIR SEA DIR/SP/G            HT/PER HT/PER
                 (UTC) (F)     (DEG/KT/KT) (MB)    (FT/S) (FT/S)
CHESAPEAKE LIGHT 1600   45      40/ 29/ 31 1035.3
BUOY 44014       1600   50 53   30/ 25/ 31 1032.6   10/ 7   3/10
DUCK             1600   47 49   30/ 25/ 29 1033.2
2E DUCK          1600      49                N/A     8/ 7   2/11
OREGON INLET     1600   51 49  360/ 16/ 23 1033.3
BUOY 44095       1600      49                N/A    10/10   2/11
HATTERAS CG      1600   51 54   10/ 28/ 33 1031.9
DIAMOND BUOY     NOT AVBL
CAPE LOOKOUT     1600   57      10/ 17/ 19 1031.7
BEAUFORT LAB     1600   57 58   30/ 14/ 23 1031.3
30 SE NEW RIVER  1600   56 63   20/ 21/ 25 1031.4    7/10   3/10
5 SE WRIGHTSVILL 1600   54 60   50/ 17/ 19 1031.8
FRYING PAN BUOY  1600   58 63   40/ 21/ 25 1029.8    8/ 7   3/10
BUOY 41001       NOT AVBL
BUOY 41002       NOT AVBL
BUOY 41004       NOT AVBL

$$



USA.gov is the U.S. government's official web portal to all federal, state and local government web resources and services.